[[{"header":{"parameterUnit":"m.s-1","parameterCategory":1,"la1":30.2992,"la2":30.254,"lo1":-89.0895,"lo2":-89.0443,"dy":0.0025,"dx":0.0025,"nx":19,"ny":19,"refTime":"2026-03-18T03:00:00:Z","depth":0,"parameterNumber":2,"parameterNumberName":"U-component_of_WINDS"},"data":[0,0,0,0.9839,0.9838,0.9767,0.9767,0.9677,0.9677,0,0,0,0,0,0,0,0,0,0,0,0.9863,0.9862,0.9839,0.9837,0.9767,0.9767,0.9678,0.9677,0,0,0,0,0,0,0,0,0,0,0,0.9863,0.9862,0.9862,0.9837,0.9767,0.9767,0.9678,0.973,0,0,0,0,0,0,0,0,0,0,0.9798,0.9823,0.9862,0.9862,0.9837,0.9768,0.9767,0.9732,0.9727,0.971,0,0.9699,0,0.9687,0.9671,0.9671,0,0,0,0.9834,0.9828,0.9807,0.9862,0.9836,0.9768,0.9798,0.9729,0.9723,0.9703,0.9698,0.9694,0.9685,0.967,0.967,0.959,0.959,0,0,0.9838,0.9851,0.9811,0.9803,0.9817,0.98,0.9796,0.9725,0.9719,0.9697,0.9692,0.9684,0.967,0.9669,0.959,0.959,0,0,0,0.9851,0.9854,0.9834,0.9807,0.9794,0.9798,0.9793,0.9723,0.9715,0.9691,0.9683,0.9669,0.9668,0.959,0.959,0.959,0,0,0,0.9854,0.9862,0.9836,0.9843,0.9796,0.9758,0.9792,0.972,0.9712,0.9683,0.9669,0.9667,0.9591,0.959,0.9591,0.9588,0,0,0,0.9866,0.9863,0.9854,0.9844,0.9815,0.9759,0.9747,0.9718,0.9707,0.9671,0.9667,0.9591,0.959,0.9591,0.9588,0.9569,0,0,0,0.9883,0.9855,0.9854,0.982,0.9815,0.9761,0.9748,0.9706,0.9676,0.9669,0.959,0.959,0.9591,0.9589,0.957,0.9554,0.9549,0,0,0.9855,0.9853,0.9831,0.9829,0.9778,0.9771,0.9719,0.9678,0.9662,0.9614,0.9612,0.9591,0.9588,0.9569,0.9521,0.9518,0,0,0,0.9827,0.9812,0.9796,0.9768,0.9737,0.9709,0.9675,0.9659,0.9618,0.9641,0.9579,0.9577,0.9565,0.9557,0.9554,0.9541,0.9587,0.9587,0.9587,0.9805,0.9788,0.9751,0.9724,0.9697,0.9661,0.9637,0.9609,0.9598,0.9584,0.9569,0.9543,0.9534,0.9531,0.9519,0.9561,0.9561,0.9561,0.9561,0.9762,0.9737,0.9724,0.9683,0.9663,0.9628,0.9591,0.9585,0.9547,0.9553,0.9541,0.9547,0.9528,0.9516,0.9561,0.9561,0.9561,0.9561,0.9561,0.9745,0.9729,0.9712,0.9669,0.9637,0.961,0.9574,0.9558,0.9541,0.953,0.9511,0.9511,0.9507,0.9522,0.9522,0.9522,0.9522,0.9522,0.9522,0.9733,0.9713,0.9686,0.9651,0.963,0.96,0.9563,0.9541,0.9511,0.9502,0.9501,0.949,0.9531,0.954,0.952,0.9521,0.9521,0.9521,0.9521,0.9693,0.9699,0.9658,0.9637,0.9592,0.956,0.9539,0.9495,0.9474,0.9457,0.9448,0.9481,0.9477,0.9479,0.9486,0.9454,0.9454,0.9454,0.9454,0.9676,0.9673,0.9626,0.9593,0.9559,0.9536,0.9486,0.9456,0.9426,0.9411,0.9414,0.9423,0.9426,0.9419,0.9422,0.9429,0.9383,0.9383,0.9383,0.965,0.9642,0.9604,0.9577,0.954,0.9508,0.946,0.942,0.9387,0.9379,0.9398,0.9401,0.9416,0.9422,0.9413,0.9419,0.9431,0,0]},{"header":{"parameterUnit":"m.s-1","parameterCategory":1,"la1":30.2992,"la2":30.254,"lo1":-89.0895,"lo2":-89.0443,"dy":0.0025,"dx":0.0025,"nx":19,"ny":19,"refTime":"2026-03-18T03:00:00:Z","depth":0,"parameterNumber":3,"parameterNumberName":"V-component_of_WINDS"},"data":[0,0,0,1.3653,1.3654,1.3704,1.3704,1.3767,1.3767,0,0,0,0,0,0,0,0,0,0,0,1.3639,1.364,1.3653,1.3654,1.3704,1.3704,1.3767,1.3767,0,0,0,0,0,0,0,0,0,0,0,1.3639,1.3639,1.364,1.3654,1.3703,1.3704,1.3766,1.3729,0,0,0,0,0,0,0,0,0,0,1.3681,1.367,1.3639,1.364,1.3654,1.3703,1.3704,1.3727,1.3731,1.3744,0,1.3757,0,1.3763,1.3772,1.3772,0,0,0,1.3653,1.3666,1.3678,1.364,1.3655,1.3703,1.3681,1.3729,1.3734,1.375,1.3758,1.3761,1.3764,1.3772,1.3772,1.3851,1.3852,0,0,1.365,1.3649,1.3675,1.3682,1.3675,1.3679,1.3682,1.3732,1.3741,1.3759,1.3762,1.3765,1.3772,1.3773,1.3851,1.3851,0,0,0,1.3643,1.3647,1.3658,1.3679,1.3688,1.3681,1.3684,1.3739,1.3743,1.3763,1.3766,1.3773,1.3774,1.385,1.3851,1.3869,0,0,0,1.3641,1.3643,1.3657,1.3656,1.3687,1.3714,1.369,1.3739,1.3745,1.3766,1.3773,1.3774,1.385,1.3851,1.3867,1.3878,0,0,0,1.3635,1.3642,1.3649,1.3656,1.3677,1.3714,1.372,1.374,1.3747,1.3772,1.3774,1.385,1.3851,1.3866,1.3875,1.3896,0,0,0,1.3629,1.3666,1.365,1.3692,1.3677,1.3725,1.372,1.3756,1.3779,1.3773,1.385,1.3851,1.3866,1.3874,1.3895,1.3913,1.392,0,0,1.3675,1.3672,1.3697,1.3683,1.3734,1.3717,1.3769,1.3793,1.3797,1.3832,1.3834,1.3868,1.3875,1.3896,1.3966,1.3972,0,0,0,1.3711,1.3729,1.3742,1.3764,1.3782,1.3798,1.3813,1.3821,1.3851,1.3815,1.3882,1.3886,1.3898,1.3907,1.3912,1.3921,1.3855,1.3855,1.3855,1.3775,1.3776,1.3817,1.3823,1.3845,1.3858,1.3875,1.3888,1.3885,1.39,1.3911,1.3953,1.3963,1.3966,1.3976,1.3921,1.3921,1.3921,1.3921,1.3841,1.3866,1.3858,1.3895,1.3895,1.3925,1.3939,1.3935,1.3962,1.3946,1.3956,1.3938,1.3973,1.3982,1.3923,1.3922,1.3922,1.3922,1.3922,1.3883,1.3894,1.3903,1.3932,1.3954,1.3959,1.3984,1.3985,1.3985,1.3996,1.4005,1.4005,1.4003,1.4,1.4,1.4001,1.4001,1.4001,1.4001,1.3922,1.393,1.3952,1.3972,1.3984,1.4,1.4011,1.4023,1.4036,1.4034,1.4034,1.4027,1.3977,1.3963,1.4003,1.4003,1.4002,1.4002,1.4002,1.3987,1.3972,1.4005,1.4017,1.4038,1.4058,1.4057,1.408,1.409,1.4101,1.4092,1.4055,1.4052,1.4048,1.4036,1.4093,1.4093,1.4093,1.4093,1.4021,1.4019,1.4051,1.4069,1.4087,1.4089,1.4124,1.4132,1.4138,1.4143,1.4135,1.412,1.4116,1.4115,1.411,1.4099,1.417,1.417,1.417,1.406,1.4059,1.409,1.4095,1.411,1.4123,1.4155,1.4175,1.4179,1.4173,1.4147,1.4143,1.412,1.4112,1.4107,1.4098,1.4079,0,0]}]]